Location: Abraham Lincoln Continuation High School
(33.9711°N, 117.3662°W)
Time: 03:47:11
(UTC+00:00)

Cosmos 1812 - Pass Details

Date: 21 September 2020
Orbit: 517 x 521 km, 82.5° (Epoch: 25 October)

Event Time Altitude Azimuth Distance (km) Brightness Sun altitude
Exits shadow 11:56:35 21° 337° (NNW) 1,196 4.4 -21.4°
Drops below altitude 10° 11:58:09 10° 350° (N) 1,758 5.4 -21.1°
Sets 12:00:23 0° 358° (N) 2,651 6.5 -20.7°
